Location: ?????
(33.0094°N, 35.8894°E)
Time: 14:18:45
(UTC+00:00)

Daily predictions for brighter satellites

Satellite Brightness Start Highest point End
(mag) Time Altitude Azimuth Time Altitude Azimuth Time Altitude Azimuth
Cosmos 372 Rocket 4.5 17:07:51 10° N 17:12:52 44° ENE 17:17:52 10° SE
CZ-2C R/B 4.4 17:09:39 10° NNE 17:14:06 38° E 17:18:31 10° SSE
Cosmos 1356 Rocket 4.0 17:12:19 10° N 17:16:19 39° E 17:20:14 10° SSE
EXPRESS MD2 4.1 17:18:57 10° WNW 17:21:56 46° SW 17:27:19 10° SSE
Cosmos 1626 3.0 17:21:55 10° SSW 17:25:32 54° W 17:29:09 10° N
Cosmos 1818 3.8 17:22:20 10° S 17:27:27 46° ESE 17:32:37 10° NE
CZ-2C R/B 4.1 17:21:55 10° S 17:27:32 54° W 17:33:00 10° NNW
SL-16 R/B 2.4 17:23:05 10° SSW 17:28:45 81° WNW 17:34:27 10° NNE
ARGOS 3.4 17:23:32 10° S 17:28:56 75° WSW 17:34:23 10° NNW
SL-08 RB Rocket 3.7 17:28:24 10° SSE 17:32:52 90° ENE 17:37:21 10° NNW
MetOp-A 4.3 17:28:41 10° SSE 17:33:54 58° ENE 17:39:10 10° N
Resurs 01 Rocket 2.9 17:30:33 11° SE 17:34:01 25° ENE 17:37:36 10° NNE
CZ-2C R/B 2.6 17:30:34 10° NNE 17:35:57 85° ESE 17:41:12 10° SSW
USA 215 3.6 17:33:05 10° ENE 17:39:08 39° SE 17:45:07 10° SSW
ATLAS 5 CENTAUR R/B 1.4 17:38:39 10° SSW 17:42:32 55° ESE 17:46:42 10° NE
MONITOR-E 3.6 17:40:23 10° S 17:42:50 76° W 17:45:18 10° NNW
Cosmos 2150 Rocket 4.1 17:38:50 10° N 17:43:59 62° ENE 17:48:46 12° SSE
GEOS 3 Rocket 3.9 17:42:04 10° NE 17:47:18 50° ESE 17:52:28 10° SSW
Cosmos 2058 Rocket 3.4 17:43:35 10° NNW 17:48:04 70° W 17:52:29 10° S
USA 186 3.7 17:47:22 10° SSW 17:50:21 30° W 17:53:19 10° NW
Cosmos 1844 Rocket 4.4 17:48:14 10° NNE 17:51:48 17° ENE 17:54:56 11° E
Cosmos 1758 Rocket 4.4 17:53:39 17° SE 17:56:24 31° E 18:00:22 10° NNE
Ariane Rocket 4.2 17:52:17 10° S 17:57:04 42° W 18:01:54 10° NNW
Cosmos 1626 Rocket 3.7 17:53:33 10° S 17:57:59 78° W 18:02:27 10° N
Meteor 2-10 Rocket 4.2 17:53:28 10° N 17:58:13 36° ENE 18:01:20 19° SE
Cosmos 1745 Rocket 4.1 17:52:25 10° SSE 17:58:23 56° E 18:04:28 10° NNE
OAO 3 Rocket 3.4 17:59:15 10° W 18:04:08 70° N 18:08:25 14° E
Resurs 1-3 3.7 18:05:44 14° S 18:09:27 79° WSW 18:13:51 10° NNW
Meteor 1-21 Rocket 4.3 18:03:52 10° S 18:09:43 79° E 18:15:39 10° N
H-2A R/B 4.4 18:06:59 10° SW 18:11:05 22° W 18:15:13 10° NW
Cosmos 1125 Rocket 3.5 18:09:13 10° NNW 18:14:29 75° ENE 18:17:45 24° SSE
SL-08 ROCKET BODY 4.3 18:08:58 10° S 18:14:51 79° E 18:20:52 10° N
BREEZE M DEB (TANK) 3.6 18:12:59 20° S 18:14:58 34° ESE 18:22:51 10° NE
Cosmos 2322 Rocket 3.8 18:11:03 10° SW 18:16:11 37° WNW 18:21:22 10° N
SPOT 3 Rocket 3.8 18:13:47 13° S 18:18:27 66° WSW 18:23:39 10° NNW
Cosmos 1953 Rocket 4.4 18:18:56 27° ESE 18:19:32 28° E 18:23:15 10° NNE
OAO 2 Rocket 3.5 18:20:36 10° W 18:25:55 80° N 18:30:36 14° ENE
Cosmos 1328 3.8 18:26:16 38° SSE 18:27:30 57° E 18:31:24 10° NNE
Cosmos 1825 Rocket 3.5 18:33:11 32° S 18:35:10 75° E 18:39:37 10° N
COSMOS 2428 3.0 18:33:39 31° SSE 18:35:44 44° ESE 18:41:06 10° NE
Geosat 4.3 18:34:36 26° S 18:37:21 61° WSW 18:42:21 10° NNW
SAR-Lupe-2 3.6 18:35:53 10° NNE 18:39:18 55° E 18:39:18 55° E
Cosmos 2322 3.6 18:33:58 10° SSW 18:39:41 87° ESE 18:45:26 10° NNE
Cosmos 1461 3.6 18:35:19 10° NW 18:39:58 57° WSW 18:41:51 33° S
Cosmos 1455 2.1 18:37:12 10° N 18:41:03 87° E 18:41:50 55° S
Cosmos 1703 3.3 18:40:05 35° SSW 18:41:38 76° W 18:45:30 10° N
NOSS 3-3 (A) 3.7 18:37:07 10° SSW 18:42:42 71° ESE 18:48:51 10° NE
NOSS 3-3 (C) 3.7 18:37:13 10° SSW 18:42:49 70° ESE 18:48:58 10° NE
Cosmos 1709 Rocket 3.9 18:39:37 25° S 18:43:25 72° E 18:49:44 10° N
Cosmos 1844 4.4 18:40:39 10° N 18:46:02 40° ENE 18:47:38 33° E
MetOp-B 4.1 18:46:28 34° S 18:48:54 81° WSW 18:54:17 10° NNW
Cosmos 1812 Rocket 4.2 18:44:52 10° NNW 18:49:04 50° W 18:50:59 28° SSW
Cosmos 2237 Rocket 3.9 18:51:25 18° ENE 18:51:25 18° ENE 18:53:46 10° NE
Delta 2 Rocket 3.3 18:47:44 10° WNW 18:51:02 52° N 18:51:17 51° NNE
Cosmos 2333 4.3 18:45:54 10° SSW 18:51:30 76° WNW 18:57:11 10° NNE
Cosmos 2219 Rocket 2.0 18:49:04 28° S 18:52:06 72° ESE 18:57:40 10° NNE
Nadezhda 1 Rocket 4.2 18:46:09 10° N 18:52:31 71° W 18:56:22 25° S
Atlas Centaur 2 2.4 18:46:56 10° W 18:52:50 71° S 18:56:13 33° ESE
Terra 3.2 18:52:47 24° ENE 18:53:00 24° ENE 18:56:46 10° NNE
Cosmos 2360 Rocket 3.8 18:49:04 10° SW 18:54:08 34° WNW 18:59:16 10° N
Cosmos 2263 Rocket 4.1 18:50:07 10° NW 18:54:20 22° W 18:58:32 10° SSW
CARTOSAT-1 4.2 18:55:50 39° ENE 18:55:50 39° ENE 18:59:51 10° N
Cosmos 1538 Rocket 4.0 18:54:45 44° SSE 18:56:19 66° ESE 19:01:37 10° NNE
IGS 5A 3.4 18:59:07 67° S 18:59:36 82° WSW 19:03:47 10° NNW
Cosmos 2333 Rocket 2.2 18:57:31 20° SSW 19:01:35 86° WNW 19:07:19 10° NNE
DELTA 2 R/B (1) 3.5 18:56:24 10° WSW 19:01:59 89° SSE 19:07:37 10° ENE
Resurs 01 Rocket 3.6 19:08:07 16° SW 19:10:23 23° W 19:13:53 10° NW
ERS-1 Rocket 2.8 19:16:52 71° ESE 19:17:16 76° ENE 19:22:18 10° N
Cosmos 1315 Rocket 4.0 19:15:43 10° N 19:18:31 34° NE 19:18:31 34° NE
Cosmos-2242 3.6 19:17:42 10° NNW 19:21:55 51° W 19:22:15 50° WSW
USA 215 4.1 19:15:52 10° NNE 19:22:07 49° NW 19:28:20 10° WSW
Cosmos 2221 4.1 19:23:07 10° NNE 19:25:38 25° NE 19:25:38 25° NE
Cosmos 2278 Rocket 3.7 19:26:26 10° N 19:30:54 23° ENE 19:31:19 23° ENE
SL-16 R/B 4.5 19:37:05 11° ENE 19:37:05 11° ENE 19:37:22 10° ENE
SPOT 5 2.9 19:34:42 83° WSW 19:34:44 83° WSW 19:39:41 10° NNW
Cosmos 1844 Rocket 2.9 19:30:35 10° NNW 19:36:01 56° WSW 19:36:36 53° SW
Cosmos 2154 Rocket 4.5 19:38:18 42° E 19:38:18 42° E 19:43:39 10° NNE
H-2A ROCKET BODY 4.2 19:33:37 10° W 19:40:13 54° S 20:16:16 10° ESE
Meteor 2-17 Rocket 4.4 19:43:25 67° E 19:43:25 67° E 19:49:21 10° NNE
Cosmos 2074 Rocket 3.8 19:44:35 75° S 19:45:11 87° E 19:51:26 10° N
In-Cosmos 22 Rocket 4.3 19:48:10 59° NE 19:48:10 59° NE 19:52:37 10° NNE
OAO 3 Rocket 4.1 19:42:50 10° WNW 19:46:11 42° W 19:46:11 42° W
Cosmos 2181 Rocket 4.1 19:42:12 10° NNW 19:48:26 67° W 19:49:24 58° SW
Cosmos 1680 Rocket 4.0 19:55:25 51° NE 19:55:25 51° NE 19:59:27 10° NNE
VEP-3 3.9 19:59:26 10° WSW 20:18:55 16° ESE 20:24:39 10° ESE
BREEZE-M R/B 4.0 19:58:26 10° NW 20:06:41 59° NNE 20:06:41 59° NNE
Cosmos 2344 3.3 20:06:06 68° S 20:07:07 80° ESE 20:14:43 10° NNE
Cosmos 2327 Rocket 4.4 20:07:35 85° NNE 20:07:35 85° NNE 20:13:34 10° N
OAO 2 Rocket 4.2 20:05:39 10° W 20:09:33 48° WNW 20:09:33 48° WNW
Cosmos 1980 4.0 20:15:08 60° WNW 20:15:08 60° WNW 20:20:38 10° NNE
ATLAS CENTAUR R/B 3.9 20:21:19 10° NNW 20:22:16 17° NNW 20:22:16 17° NNW
Terra 3.6 20:31:40 25° WNW 20:31:40 25° WNW 20:34:38 10° NW
Cosmos 2237 Rocket 3.0 20:33:12 44° WNW 20:33:23 45° WNW 20:38:50 10° N
Atlas Centaur 2 3.8 20:35:36 10° W 20:38:47 30° WSW 20:38:47 30° WSW
ATLAS 2AS CENTAUR R/B 3.0 20:51:49 10° NNW 20:59:01 59° NE 20:59:01 59° NE
Cosmos 2218 Rocket 4.4 21:06:08 59° NNE 21:06:08 59° NNE 21:11:13 10° N
Cosmos 2366 rocket 4.4 21:11:55 60° NNE 21:11:55 60° NNE 21:17:02 10° N
Cosmos 2278 Rocket 3.6 21:09:49 10° NW 21:13:09 30° WNW 21:13:09 30° WNW
SL-16 R/B 3.1 21:18:55 45° NNW 21:18:55 45° NNW 21:23:11 10° N
Cosmos 1943 Rocket 3.8 21:18:53 10° N 21:23:11 25° NE 21:23:11 25° NE
USA 267 3.6 21:34:05 54° WNW 21:34:05 54° WNW 21:39:06 10° NW
COSMOS 2455 3.7 21:50:06 10° NNW 21:55:19 44° NE 21:55:19 44° NE
Cosmos 1727 Rocket 4.5 21:58:31 10° N 22:03:21 54° NNW 22:03:21 54° NNW
Cosmos 2369 Rocket 3.3 22:02:38 10° N 22:07:04 39° NE 22:07:04 39° NE
Resurs 1-4 Rocket 4.2 22:05:18 10° NE 22:07:40 18° ENE 22:07:40 18° ENE
SeaSat 1 4.2 22:09:16 10° NE 22:11:34 25° NE 22:11:34 25° NE
DELTA 2 R/B (1) 4.4 22:36:22 47° NNE 22:36:22 47° NNE 22:41:19 10° E
CZ-2D R/B 3.4 22:33:46 10° NNE 22:37:33 34° ENE 22:37:33 34° ENE
Lacrosse 5 3.6 22:48:42 26° ENE 22:48:42 26° ENE 22:51:15 10° NE
Cosmos 1943 4.3 22:56:06 36° NW 22:56:06 36° NW 23:00:36 10° N
NPP 4.4 22:52:24 10° NNE 22:56:49 45° ENE 22:56:49 45° ENE
Cosmos 1943 Rocket 3.8 23:02:10 10° NW 23:04:40 24° WNW 23:04:40 24° WNW
Lacrosse 5 rocket 3.7 23:04:31 10° NNW 23:06:18 20° N 23:06:18 20° N
Cosmos 2123 Rocket 4.3 23:10:13 10° NNW 23:15:28 54° WNW 23:15:28 54° WNW
Cosmos 2251 Rocket 4.0 23:17:32 56° ENE 23:17:32 56° ENE 23:21:59 10° NNE
ARIANE 5 R/B 4.5 23:19:47 10° NE 23:23:21 19° E 23:24:24 18° ESE
Iridium 4 Rocket 4.1 23:28:48 55° WNW 23:28:48 55° WNW 23:33:55 10° N
Cosmos 1153 Rocket 4.3 23:28:18 81° WSW 23:28:29 83° W 23:34:44 10° N
Cosmos 1459 Rocket 4.3 23:30:42 50° SE 23:31:41 56° E 23:37:36 10° NNE
SL-16 R/B 2.4 23:31:34 76° S 23:32:06 88° WSW 23:38:22 10° NNW
CZ-4B R/B 3.5 23:32:28 10° NNE 23:37:13 77° NNE 23:37:13 77° NNE
Cosmos 292 Rocket 4.2 23:35:18 10° NNW 23:39:09 58° NNW 23:39:09 58° NNW
CZ-4C R/B 3.0 23:34:12 10° NW 23:41:55 75° WSW 23:45:19 40° SSE
Cosmos 1933 Rocket 4.3 23:43:16 46° NNW 23:43:16 46° NNW 23:46:25 10° N
BREEZE-M TANK 3.7 23:47:12 32° N 23:47:12 32° N 23:49:23 10° NE
Resurs 1-4 Rocket 2.8 23:44:00 10° N 23:48:44 41° WNW 23:48:44 41° WNW
SeaSat 1 4.1 23:47:28 10° N 23:51:08 21° NW 23:51:20 21° WNW
Cosmos 2369 Rocket 4.2 23:47:29 10° NW 23:48:49 15° WNW 23:48:49 15° WNW
IRS-P3 4.3 23:49:03 10° NNE 23:54:20 63° E 23:55:14 55° SSE
